星链-30948 (STARLINK-30948 )

导读 | 豆包AI

STARLINK-30948是美国太空探索技术公司(SpaceX)于2023年12月7日发射的星链(Starlink)星座卫星,属于Starlink V1.0平台。该卫星运行在倾角53.054°的近地轨道,近地点约546千米,远地点约548千米,轨道周期约95.6分钟,旨在为全球提供高速低延迟卫星互联网服务,尤其覆盖传统网络难以触及的偏远地区,目前仍在轨正常工作。

基本信息
目录编号:
58525
目录名称:
STARLINK-30948
国际标识:
2023-191T
轨道中心:
EARTH
卫星名称:
星链-30948
卫星全名:
星链-30948 (STARLINK-30948 )
卫星状态:
在轨 (已飞行875 天)
发射日期:
2023-12-07 UTC
国别 :
美国 (US)
星等 :
--
轨道信息
数据来源 国际轨道数据
星历时间: 2026-04-30T13:11:07+0800
14小时前
查看轨道信息
半长轴: 6861.187km
偏心率: 0.0001448
轨道倾角: 43.000°
近地点辐角 276.356°
升交点赤经 172.262°
平近点角 83.713°
近地点: 482.056km
远地点: 484.044km
周期: 94.267分钟
每日圈数: 15.275798
详细信息
固有亮度:
5
最大亮度:
0.3
卫星平台:
Starlink v2.0 mini
覆盖范围:
全球
运营商:
太空探索技术公司
运营商所在国:
美国
制造商(研发单位):
太空探索技术公司
制造商所在国:
美国
使用方式:
暂无
卫星简介
星链(Starlink)计划是由太空探索技术公司(SpaceX)提出的一个巨型低轨卫星互联网星座项目,计划在2019年至2024年间在太空搭建由约1.2万颗卫星组成的“星链”网络,其中1584颗将部署在地球上空550千米处的近地轨道,并从2020年开始工作。该卫星仍在工作。
2D轨道图
3D轨道图
轨道高度分析图
轨道倾角分析图
轨道综合分析图
查看轨道综合分析图